Idaho Cnty AP, Grangeville, I, ID

12:38 AM PDT on March 30, 2017 (GMT -0700)
Idaho Cnty AP, Grangeville, I

Weather History for KGIC - November, 2013

Change the Weather History Date:

Tuesday, November 12, 2013

  Actual Average (KP69) Record (KP69)
Temperature  
Mean Temperature 42 °F -  
Max Temperature 51 °F 45 °F 64 °F (1999)
Min Temperature 34 °F 32 °F 17 °F (2014)
Degree Days  
Heating Degree Days 22    
Moisture  
Dew Point 36 °F    
Average Humidity 78    
Maximum Humidity 89    
Minimum Humidity 58    
Precipitation  
Precipitation 0.00 in - - ()
Sea Level Pressure  
Sea Level Pressure 30.36 in    
Wind  
Wind Speed 3 mph (SE)    
Max Wind Speed 9 mph    
Max Gust Speed -    
Visibility 8 miles    
Events      
Averages and records for this station are not official NWS values.
T = Trace of Precipitation, MM = Missing Value Source: NWS Daily Summary

Daily Weather History Graph

Daily Weather History Graph

Search for Another Location

Airport or City:

Trip Planner

Search our weather history database for the weather conditions in past years. The results will help you decide how hot, cold, wet, or windy it might be!

Date:

Astronomy

Nov. 12, 2013 Rise Set
Actual Time 6:41 AM PST 4:15 PM PST
Civil Twilight 6:08 AM PST 4:47 PM PST
Nautical Twilight 5:32 AM PST 5:23 PM PST
Astronomical Twilight 4:57 AM PST 5:59 PM PST
Moon 1:46 PM PST (11/12) 1:20 AM PST (11/12)
Length of Visible Light 10h 39m
Length of Day
9h 34m
Waxing Gibbous, 77% of the Moon is Illuminated
Nov 12
Waxing Gibbous
Nov 17
Full
Nov 25
Last Quarter
Dec 2
New
Dec 9
First Quarter

Hourly Weather History & Observations

Time (PST) Temp. Windchill Dew Point Humidity Pressure Visibility Wind Dir Wind Speed Gust Speed Precip Events Conditions
12:15 AM 36.7 °F 34.1 °F 33.1 °F 87% - 4.0 mi SSW 3.5 mph - N/A   Clear
12:35 AM 38.1 °F - 33.1 °F 82% - 5.0 mi Calm Calm - N/A   Clear
12:55 AM 37.2 °F 32.6 °F 32.4 °F 83% - 1.5 mi SSE 5.8 mph - N/A   Unknown
1:15 AM 36.0 °F 32.1 °F 32.2 °F 86% - 1.2 mi SSE 4.6 mph - N/A   Unknown
1:35 AM 36.3 °F 32.5 °F 32.2 °F 85% - 1.2 mi SSW 4.6 mph - N/A   Unknown
1:55 AM 37.2 °F - 32.4 °F 83% - 1.2 mi Calm Calm - N/A   Unknown
2:15 AM 35.2 °F 30.3 °F 31.3 °F 85% - 5.0 mi SSE 5.8 mph - N/A   Clear
2:35 AM 36.5 °F - 32.0 °F 84% - 5.0 mi Calm Calm - N/A   Clear
2:55 AM 35.2 °F - 31.6 °F 87% - 3.0 mi Calm Calm - N/A   Clear
3:15 AM 34.9 °F 32.0 °F 31.8 °F 89% - 10.0 mi SW 3.5 mph - N/A   Clear
3:35 AM 35.1 °F 30.1 °F 31.6 °F 87% - 10.0 mi SSW 5.8 mph - N/A   Clear
3:55 AM 37.2 °F 33.6 °F 32.4 °F 83% - 5.0 mi South 4.6 mph - N/A   Clear
4:15 AM 37.4 °F 30.8 °F 32.0 °F 81% - 1.5 mi SE 9.2 mph - N/A   Unknown
4:35 AM 36.3 °F 30.1 °F 31.6 °F 83% - 1.2 mi SSE 8.1 mph - N/A   Unknown
4:55 AM 38.8 °F - 31.5 °F 75% - 4.0 mi Calm Calm - N/A   Clear
5:15 AM 35.8 °F - 30.6 °F 81% - 10.0 mi Calm Calm - N/A   Clear
5:35 AM 35.6 °F - 30.6 °F 82% - 1.5 mi Calm Calm - N/A   Unknown
5:55 AM 34.9 °F 30.8 °F 30.7 °F 85% - 1.5 mi SE 4.6 mph - N/A   Unknown
6:15 AM 34.0 °F - 30.4 °F 87% - 10.0 mi Calm Calm - N/A   Clear
6:35 AM 34.0 °F - 30.9 °F 89% - 1.0 mi Calm Calm - N/A   Unknown
6:55 AM 34.3 °F 29.2 °F 30.7 °F 87% - 0.5 mi SE 5.8 mph - N/A   Unknown
7:15 AM 34.5 °F - 30.7 °F 86% - 1.8 mi Calm Calm - N/A   Unknown
7:35 AM 35.6 °F 31.7 °F 31.3 °F 84% - 10.0 mi NNW 4.6 mph - N/A   Clear
7:55 AM 36.0 °F - 31.8 °F 85% - 0.2 mi Calm Calm - N/A   Unknown
8:15 AM 35.6 °F - 31.8 °F 86% - 7.0 mi Calm Calm - N/A   Clear
8:35 AM 36.3 °F 33.7 °F 32.4 °F 86% - 0.5 mi East 3.5 mph - N/A   Unknown
8:55 AM 38.3 °F 34.8 °F 33.3 °F 82% - 10.0 mi East 4.6 mph - N/A   Clear
9:15 AM 39.6 °F 37.4 °F 34.2 °F 81% - 4.0 mi ESE 3.5 mph - N/A   Clear
9:35 AM 41.2 °F 39.2 °F 34.9 °F 78% - 2.5 mi East 3.5 mph - N/A   Clear
9:55 AM 43.3 °F 40.7 °F 35.1 °F 73% - 7.0 mi East 4.6 mph - N/A   Clear
10:15 AM 44.1 °F 41.5 °F 35.4 °F 72% - 10.0 mi East 4.6 mph - N/A   Clear
10:35 AM 46.0 °F - 34.9 °F 65% - 10.0 mi Calm Calm - N/A   Clear
10:55 AM 47.3 °F - 35.2 °F 63% - 10.0 mi East 4.6 mph - N/A   Clear
11:15 AM 47.7 °F - 35.2 °F 62% - 10.0 mi Calm Calm - N/A   Clear
11:35 AM 48.9 °F - 34.7 °F 58% 30.34 in 10.0 mi Calm Calm - N/A   Clear
11:55 AM 50.5 °F - 36.5 °F 59% - 10.0 mi Calm Calm - N/A   Clear
12:15 PM 51.4 °F - 36.9 °F 58% 30.35 in 10.0 mi Calm Calm - N/A   Clear
12:35 PM 51.1 °F - 38.3 °F 62% - 10.0 mi East 8.1 mph - N/A   Clear
12:55 PM 48.6 °F - 40.3 °F 73% - 10.0 mi East 6.9 mph - N/A   Clear
1:15 PM 47.7 °F - 39.7 °F 74% - 10.0 mi ESE 4.6 mph - N/A   Clear
1:35 PM 48.0 °F - 39.0 °F 71% - 10.0 mi ENE 5.8 mph - N/A   Scattered Clouds
1:55 PM 47.5 °F - 39.4 °F 73% - 10.0 mi ESE 4.6 mph - N/A   Clear
2:15 PM 47.7 °F - 38.5 °F 70% - 10.0 mi Calm Calm - N/A   Mostly Cloudy
2:35 PM 48.6 °F - 36.7 °F 64% - 10.0 mi East 4.6 mph - N/A   Scattered Clouds
2:55 PM 48.9 °F - 37.6 °F 65% 30.35 in 10.0 mi Calm Calm - N/A   Mostly Cloudy
3:15 PM 49.3 °F - 37.0 °F 63% 30.34 in 10.0 mi East 4.6 mph - N/A   Overcast
3:35 PM 49.1 °F - 39.0 °F 68% 30.35 in 10.0 mi Calm Calm - N/A   Overcast
3:55 PM 48.0 °F - 40.8 °F 76% 30.34 in 10.0 mi Calm Calm - N/A   Overcast
4:15 PM 47.1 °F - 41.2 °F 80% 30.34 in 10.0 mi West 3.5 mph - N/A   Overcast
4:35 PM 46.2 °F - 40.8 °F 81% 30.35 in 10.0 mi Calm Calm - N/A   Overcast
4:55 PM 46.4 °F - 40.6 °F 80% 30.35 in 10.0 mi Calm Calm - N/A   Overcast
5:15 PM 46.4 °F 44.3 °F 40.1 °F 79% 30.35 in 10.0 mi SSW 4.6 mph - N/A   Overcast
5:35 PM 47.8 °F - 38.3 °F 70% 30.35 in 10.0 mi South 3.5 mph - N/A   Overcast
5:55 PM 48.6 °F - 37.8 °F 66% 30.35 in 10.0 mi Calm Calm - N/A   Overcast
6:15 PM 47.7 °F - 39.4 °F 73% 30.36 in 10.0 mi Calm Calm - N/A   Overcast
6:35 PM 46.2 °F 42.7 °F 40.3 °F 80% 30.38 in 10.0 mi SE 6.9 mph - N/A   Overcast
6:55 PM 45.0 °F 40.1 °F 40.6 °F 85% 30.38 in 10.0 mi SE 9.2 mph - N/A   Overcast
7:15 PM 45.1 °F 42.8 °F 40.6 °F 84% 30.39 in 10.0 mi South 4.6 mph - N/A   Overcast
7:35 PM 46.2 °F 42.7 °F 40.8 °F 81% 30.38 in 10.0 mi South 6.9 mph - N/A   Overcast
7:55 PM 47.7 °F - 40.6 °F 77% 30.37 in 10.0 mi South 6.9 mph - N/A   Overcast
8:15 PM 49.3 °F - 40.6 °F 72% 30.38 in 10.0 mi SW 4.6 mph - N/A   Overcast
8:35 PM 49.8 °F - 41.0 °F 72% 30.38 in 10.0 mi SW 4.6 mph - N/A   Overcast
8:55 PM 48.6 °F - 41.5 °F 77% 30.38 in 10.0 mi Calm Calm - N/A   Overcast
9:15 PM 46.6 °F - 41.2 °F 81% 30.37 in 10.0 mi ESE 9.2 mph - N/A   Overcast
9:35 PM 45.5 °F 41.8 °F 40.5 °F 83% 30.37 in 10.0 mi ESE 6.9 mph - N/A   Overcast
9:55 PM 43.7 °F 40.3 °F 39.9 °F 87% 30.36 in 10.0 mi ESE 5.8 mph - N/A   Mostly Cloudy
10:15 PM 42.3 °F - 38.7 °F 87% 30.36 in 10.0 mi Calm Calm - N/A   Scattered Clouds
10:35 PM 41.4 °F 37.6 °F 37.9 °F 88% 30.36 in 10.0 mi SSW 5.8 mph - N/A   Clear
10:55 PM 40.6 °F 38.6 °F 37.4 °F 88% 30.36 in 10.0 mi SSE 3.5 mph - N/A   Scattered Clouds
11:15 PM 41.7 °F 39.8 °F 37.9 °F 86% 30.36 in 10.0 mi East 3.5 mph - N/A   Clear
11:35 PM 40.8 °F 35.0 °F 37.6 °F 88% 30.37 in 7.0 mi SE 9.2 mph - N/A   Clear
11:55 PM 41.5 °F 37.1 °F 37.4 °F 85% 30.37 in 10.0 mi SE 6.9 mph - N/A   Clear